Cloud_Cover
24 20 100 76 9 0 0 0 0 5 5 41 100 100 100 94 100 100 100 100 100 100 100 100 100 100 100 100 100 100 100 100 100 93 94 39 5 9 0 0 0 0 1 0 4 5 5 5 6
81 23 85 100 65 0 1 0 0 1 1 2 92 100 100 100 86 100 100 100 98 67 100 100 100 89 88 100 100 100 100 100 99 71 100 87 10 5 5 1 0 0 0 0 0 0 1 12 100
88 64 11 8 5 0 0 4 5 0 0 0 7 100 78 100 100 89 100 87 100 82 100 90 100 100 95 33 92 100 53 71 100 100 100 97 87 65 5 4 0 0 2 2 5 4 4 0 12
1 5 5 0 0 0 0 0 0 0 0 0 0 4 72 12 82 100 100 100 100 100 88 100 100 100 100 38 100 100 100 38 86 100 22 10 100 89 100 3 3 0 0 5 5 5 37 4 4
0 0 2 2 0 0 0 2 0 0 0 0 0 0 1 5 5 30 62 100 100 99 91 41 100 100 100 100 100 100 42 61 99 100 100 38 10 68 7 66 70 1 0 57 15 6 100 61 4
0 0 0 0 0 0 0 1 0 0 0 0 0 0 0 0 5 2 19 95 100 71 89 57 22 37 40 100 100 100 100 37 40 100 100 97 36 16 8 13 68 89 3 2 25 91 77 82 92
0 0 0 0 0 0 0 0 0 0 0 0 0 0 0 0 0 0 0 0 16 93 44 48 40 9 1 100 99 100 100 100 39 55 100 100 96 5 5 15 52 80 26 5 3 100 100 100 100
0 0 0 0 0 0 0 0 0 0 0 0 0 0 0 0 0 0 0 0 3 18 26 33 68 41 48 31 100 100 100 100 100 72 38 100 48 6 31 9 7 44 24 5 5 83 96 33 6
0 0 0 0 0 0 0 4 0 0 0 0 0 0 0 0 0 0 0 0 1 7 18 28 46 86 64 55 24 56 100 100 100 100 93 10 94 42 28 56 19 23 89 5 29 80 94 13 3
0 0 0 0 0 0 0 0 0 0 0 0 0 0 0 0 0 0 0 0 0 0 21 30 41 65 100 100 65 20 14 72 100 62 81 100 44 40 43 75 7 5 54 6 99 62 96 91 11
0 0 0 0 0 0 0 0 0 0 0 0 0 0 0 0 0 3 2 0 0 0 0 19 27 33 67 100 58 34 99 78 36 100 90 69 82 22 13 29 66 59 5 40 33 58 45 5 5
0 0 0 0 0 0 0 0 0 0 0 0 0 0 0 0 0 0 0 0 0 0 0 2 19 40 79 77 46 9 99 99 100 95 86 56 100 98 89 23 24 58 48 95 50 42 6 9 12
0 0 0 0 0 0 0 0 0 0 0 0 0 0 0 0 0 0 0 0 0 0 0 0 11 29 63 62 44 47 26 24 50 52 100 88 98 99 100 94 5 49 20 57 16 27 49 54 83
0 0 0 0 0 0 0 0 0 0 0 0 0 0 0 0 0 0 0 0 0 0 0 0 0 13 33 44 49 57 54 2 0 2 11 100 100 97 100 60 69 44 70 18 14 6 5 19 77
0 0 0 0 0 0 0 0 0 0 0 0 0 0 0 0 0 0 0 0 0 0 0 0 0 0 30 34 19 45 47 57 4 0 0 100 100 43 86 80 38 95 57 86 85 16 68 94 76
0 0 0 0 0 0 0 0 0 0 0 0 0 0 0 0 0 0 0 0 0 0 0 0 0 0 1 21 10 62 50 24 20 0 0 85 100 59 44 5 5 98 91 22 56 86 74 63 80
0 0 0 0 0 0 0 0 0 0 0 0 0 0 0 0 0 0 0 0 0 0 0 0 0 0 0 0 7 15 72 58 40 41 66 100 99 42 5 14 5 46 62 87 15 29 98 100 86
0 0 0 0 0 0 0 0 0 0 0 0 0 0 0 0 0 0 0 0 0 0 0 0 0 0 0 0 9 17 37 89 75 60 87 67 48 42 0 4 1 5 46 99 22 62 68 98 99
0 0 0 0 0 0 0 0 0 0 0 0 0 0 0 0 0 2 0 0 0 0 0 0 0 0 0 0 31 34 8 29 81 72 43 33 8 7 2 0 12 9 38 85 96 5 16 48 5
0 0 0 0 0 0 0 0 0 0 0 0 0 0 0 0 0 3 5 0 0 0 0 0 0 0 0 0 0 11 28 10 0 9 61 41 9 0 1 0 0 2 66 57 63 7 38 58 20
0 0 0 0 0 0 0 0 0 0 0 0 0 0 1 0 0 0 0 0 3 2 0 0 0 0 0 0 0 0 9 26 40 40 27 33 3 0 0 1 4 5 100 43 5 5 5 76 75
0 0 0 0 0 0 0 0 0 0 0 3 0 0 2 5 5 1 0 0 0 0 0 5 52 4 0 0 0 0 0 0 0 0 0 1 3 0 0 0 4 1 62 65 37 5 35 92 52
0 0 0 0 0 0 0 0 0 0 0 0 0 0 0 0 0 0 0 0 0 0 0 0 0 0 0 0 0 0 0 0 0 0 0 0 1 0 0 0 0 0 3 5 98 37 99 85 100
0 0 0 0 0 0 0 0 0 0 0 2 4 0 0 0 0 0 0 0 0 0 0 0 0 0 0 5 17 0 0 0 0 0 0 1 0 4 2 0 0 0 0 2 17 98 30 64 84
0 0 0 1 5 0 0 0 0 0 0 0 0 0 0 0 0 0 0 0 0 0 0 0 0 0 0 99 100 97 17 0 0 0 0 0 7 15 25 7 4 0 0 0 29 61 99 33 100
0 0 3 5 5 4 0 0 2 0 4 5 5 5 0 0 0 0 0 0 0 0 0 0 3 18 0 27 64 98 44 0 0 0 0 0 0 0 0 18 4 0 7 16 22 100 38 89 100
0 5 5 6 5 52 2 0 1 1 5 5 0 5 0 0 0 0 0 0 0 0 21 24 47 65 6 0 8 97 91 4 0 0 0 0 0 0 2 4 40 39 41 42 58 57 100 100 100
5 5 32 37 10 29 6 2 3 3 0 0 0 0 0 3 2 0 0 5 3 61 100 100 100 100 94 39 87 70 98 99 14 0 0 0 0 0 0 46 84 84 94 64 68 81 100 100 100
5 38 80 42 43 55 70 6 7 1 3 5 2 0 2 0 0 3 5 9 1 68 100 100 100 100 100 100 96 88 52 100 84 1 0 0 6 33 4 31 71 94 100 94 55 99 100 100 100
5 20 98 99 100 100 98 18 4 2 5 5 0 0 0 0 0 2 5 5 77 46 100 100 100 100 100 100 100 100 86 100 100 27 0 0 28 70 3 48 73 99 100 100 65 100 100 100 100